Flag for U.S.A. Weather past 2 weeks in Eau Claire, Wisconsin, U.S.A.

Now
58 °F

Sunny.


Feels Like: 55 °F
Forecast: 39 / 70 °F
Wind: 14 mph from South

Location: Eau Claire County Airport

Current Time: Apr 1, 2015 at 11:40:33 AM

Latest Report: Apr 1, 2015 at 10:56 AM


Visibility: 10 mi

Pressure: 29.82 "Hg

Humidity: 38%

Dew point: 32 °F

Location of Eau ClaireLocation

Historic Weather in Eau Claire — Graph

°F

Eau Claire temperature yesterday

Maximum temperature yesterday: 63 °F (at 3:56 PM)
Minimum temperature yesterday: 28 °F (at 4:56 AM)
Average temperature yesterday: 43 °F

Past Weeks' High & Low Weather Summary

 TemperatureHumidityPressure
High63 °F (Mar 31, 3:56 PM)100% (Mar 31, 1:56 AM)30.48 "Hg (Mar 31, 1:56 AM)
Low14 °F (Mar 28, 6:56 AM)20% (Mar 31, 5:56 PM)29.58 "Hg (Mar 29, 12:52 PM)
Average36 °F57%30.10 "Hg
* Reported Mar 17 9:56 AM — Apr 1 9:56 AM, Eau Claire, Weather by CustomWeather, © 2015

Note: Actual official high and low records may vary slightly from our data, if they occured in-between our weather recording intervals... More about our weather records

Advertising

Eau Claire weather history for previous 24 hours

 ConditionsComfort  
Time TempWeatherWind HumidityBarometerVisibility
9:56 AM
Wed, Apr 1
53 °FSunny.17 mph45%29.86 "Hg10 mi
8:56 AM47 °FSunny.10 mph54%29.89 "Hg10 mi
7:56 AM41 °FSunny.8 mph65%29.90 "Hg10 mi
6:56 AM39 °FClear.8 mph70%29.90 "Hg10 mi
5:56 AM39 °FClear.8 mph70%29.90 "Hg10 mi
4:56 AM40 °FClear.6 mph68%29.90 "Hg10 mi
3:56 AM41 °FClear.8 mph65%29.91 "Hg10 mi
2:56 AM43 °FPassing clouds.9 mph58%29.92 "Hg10 mi
1:56 AM41 °FClear.5 mph60%29.92 "Hg10 mi
12:56 AM39 °FClear.7 mph60%29.92 "Hg10 mi
11:56 PM
Tue, Mar 31
35 °FClear.6 mph64%29.93 "Hg10 mi
10:56 PM39 °FClear.No wind55%29.93 "Hg10 mi
9:56 PM42 °FClear.No wind43%29.93 "Hg10 mi
8:56 PM46 °FClear.No wind38%29.93 "Hg10 mi
7:56 PM55 °FCool.5 mph24%29.90 "Hg10 mi
6:56 PM60 °FSunny.7 mph21%29.89 "Hg10 mi
5:56 PM60 °FSunny.12 mph20%29.88 "Hg10 mi
4:56 PM63 °FSunny.16 mph23%29.87 "Hg10 mi
3:56 PM63 °FSunny.17 mph25%29.88 "Hg10 mi
2:56 PM62 °FSunny.15 mph27%29.88 "Hg10 mi
1:56 PM59 °FSunny.10 mph39%29.90 "Hg10 mi
12:56 PM52 °FSunny.12 mph64%29.92 "Hg10 mi
12:03 PM45 °FScattered clouds.7 mph76%29.92 "Hg10 mi
11:56 AM44 °FPartly sunny.9 mph79%29.94 "Hg10 mi
Weather by CustomWeather, © 2015

See weather overviewHow to use our weather pages